STARLINK-35336, 66006

Orbit data source: Space-Track

STARLINK-35336, 66006 is a payload satellite owned by SpaceX/Seattle (US) in LEO that was launched on Thu, 16 Oct 2025 UTC via an FALCON 9 launch vehicle from the Air Force Eastern Test Range (AFETR). Payload-class satellites include a variety of spacecraft equipped with specific instruments for various scientific and technological missions. These include communications satellites like Starlink; space stations such as the ISS; scientific satellites like the Hubble; Earth observation satellites from companies like Planet Labs, Umbra, and HawkEye 360; GPS; miniature CubeSats for education and research; and military/defense satellites.

Loading next visibility...
Identifier
66006, 2025-232B
Orbit
LEO
Country
Flag of USUS
Related business
Manufacturer
SpaceX/Seattle
Mission
Operational spacecraft
Bus & Motor
STARLINK V2MO, Unknown motor
Mass
575 kg wet, ~530 kg dry
Launch date (UTC)
2025-10-16 (1 week ago)
Launch vehicle
FALCON 9
Launch site
Air Force Eastern Test Range (AFETR)
Object type
Payload
Rocket body
Debris
Shape & HBR
Unknown shape, 17.7 m
Radar Cross Section
RCS unknown

Expand to show TLE details & history
Last TLE update: 8 hours ago

TLE from 8 hours ago
0 STARLINK-35336
1 66006U 25232B   25298.91668981 -.01394539  00000-0 -62894-2 0  9993
2 66006  53.1556  15.2601 0001179  52.1030  54.1972 15.86171539  1879
Epoch: 2025-10-25T22:00Z
TLE epoch observation values (Epoch: 2025-10-25T22:00:01.999Z)
Latitude
50.33243°
Longitude
126.75205°
Altitude
318.438 km
Speed
7.724 km/s
True Right ascension
08h 45m 12s
True Declination
50° 09' 08"
Sunlit
Object was in daylight at epoch
Visualization orbit readout
Latitude
Unknown
Longitude
Unknown
Altitude
Unknown
Speed
Unknown
Apparent Right ascension
Unknown
Apparent Declination
Unknown
Sunlit
N/A
Visualization observer readout
Local Sidereal Time
01:16:01
Azimuth
Unknown
Elevation
Unknown
Doppler factor
Unknown
Orbital elements
Apogee altitude
314.08 km
Perigee altitude
312.502 km
Semi-major axis
6,691.428 km
Eccentricity
0.00012
Inclination
53.1556°
RAAN
15.2601°
Arg. of periapsis
52.103°
True anomaly
54.20816°
Mean anomaly
54.1972°
Eccentric anomaly
54.20268°
Mean motion
3.9652 °/min
Orbital period
90.79 mins
BSTAR
-0.0062894
Loading maneuver chart data...
Computing Atmospheric mass density...
Loading historical data...
Loading historical data...
Loading historical data...
Loading historical data...
Loading historical data...
Loading historical data...
Loading historical data...

Documentation

Showing up to 5 results
|